{"data":{"norad_id":69751,"epoch":"2026-09-18T19:07:39.777024Z","epoch_age_seconds":164878,"freshness":"FRESH","line1":"1 69751U 26150N   26261.79698816  .00012126  00000+0  37727-3 0  9993","line2":"2 69751  97.2867 100.7309 0002355  93.0706 267.0806 15.33448556 13477","mean_motion":15.33448556,"eccentricity":0.0002355,"inclination_deg":97.2867,"raan_deg":100.7309,"arg_perigee_deg":93.0706,"mean_anomaly_deg":267.0806,"bstar":0.00037727,"rev_number":1347,"period_min":93.905986892461,"perigee_km":463.92091015497,"apogee_km":467.1442785339,"semimajor_km":6843.6695943444,"source":"CELESTRAK","updated_at":"2026-09-20T09:00:44.288371Z"}}